Location: Byszew
(52.1813°N, 19.2693°E)
Time: 01:50:24
(UTC+00:00)

Meteor 1-19 Rocket - Pass Details

Date: 03 March 2021
Orbit: 807 x 928 km, 81.2° (Epoch: 11 April)

Event Time Altitude Azimuth Distance (km) Brightness Sun altitude
Rises 16:56:35 0° 348° (NNW) 3,578 7.6 -5.4°
Reaches altitude 10° 16:59:09 10° 351° (N) 2,622 6.8 -5.8°
Maximum altitude 17:05:06 63° 73° (ENE) 1,001 4.4 -6.7°
Drops below altitude 10° 17:10:50 10° 155° (SSE) 2,535 6.4 -7.6°
Sets 17:13:16 0° 158° (SSE) 3,451 7.2 -8.0°
